Regional Weather Roundup
Issued by NWS

Home | Current Version | Previous Version | Text Only | Print | Product List | Glossary On
Versions: 1 2 3 4 5 6 7 8 9 10 11 12 13 14 15 16 17 18 19 20 21 22 23 24 25 26 27 28 29 30 31 32 33 34 35 36 37 38 39 40 41 42 43 44 45 46 47 48 49 50
789
ASUS43 KTOP 100308
RWRKS

WEATHER ROUNDUP FOR KANSAS
NATIONAL WEATHER SERVICE GOODLAND KS
900 PM CST FRI DEC 09 2016

NOTE:  "FAIR" INDICATES FEW OR NO CLOUDS BELOW 12,000 FEET WITH NO
SIGNIFICANT WEATHER AND/OR OBSTRUCTIONS TO VISIBILITY.

KSZ001>006-013>018-027>032-041>047-100400-
NORTHWEST KANSAS

CITY           SKY/WX    TMP DP  RH WIND       PRES   REMARKS
GOODLAND       CLOUDY    22  18  85 S10       30.19S WCI  11
HAYS           CLOUDY    20  12  71 SE9       30.36S
HILL CITY      CLOUDY    19  12  74 E7        30.32S
RUSSELL        CLOUDY    20  11  68 SE10      30.36F WCI   9
$$

KSZ061>065-074>080-084>089-100400-
SOUTHWEST KANSAS

CITY           SKY/WX    TMP DP  RH WIND       PRES   REMARKS
DODGE CITY     CLOUDY    22  13  68 SE14      30.30S WCI   9
ELKHART          N/A     28  18  66 SE7         N/A
GARDEN CITY    CLOUDY    24  16  71 SE12      30.25S WCI  13
GREAT BEND     CLOUDY    20  12  71 SE10      30.38F WCI   9
LIBERAL        CLOUDY    28  18  64 E13       30.23F WCI  18
PRATT          CLOUDY    18  10  70 SE7       30.38F
$$

KSZ066>073-081>083-090>101-100400-
SOUTHEAST KANSAS

CITY           SKY/WX    TMP DP  RH WIND       PRES   REMARKS
CHANUTE        CLOUDY    29  15  56 SE5       30.51F
COFFEYVILLE    CLOUDY    30  18  60 CALM      30.53S
HUTCHINSON     CLOUDY    39  13  34 SE9       30.43F
MEDICINE LODGE   N/A     22  12  65 E6        30.41F
NEWTON         CLOUDY    23  13  65 S7        30.44F
PARSONS        CLOUDY    30  15  53 CALM      30.53S
WICHITA INTL   CLOUDY    23  12  62 SE6       30.45F
WICHITA JABRA  CLOUDY    26  13  57 SE7       30.45F
WICHITA MCCONL CLOUDY    27  13  56 S8        30.45F
WINFIELD       CLOUDY    28  14  55 E5        30.49F
$$

KSZ007>012-019>026-033>040-048>060-102>105-100400-
NORTHEAST KANSAS

CITY           SKY/WX    TMP DP  RH WIND       PRES   REMARKS
CONCORDIA      CLOUDY    25  17  72 SE6       30.43F
EMPORIA        CLOUDY    27  13  55 S7        30.48F
LAWRENCE       CLOUDY    27  17  66 E5        30.53R
MANHATTAN      CLOUDY    29  15  56 SE3       30.48F
MARYSVILLE     CLOUDY    27  16  63 SE5       30.47F
OLATHE IND     CLOUDY    26  14  60 SE6       30.52R
OLATHE EXE     CLOUDY    25  12  58 SE6       30.51S
SALINA         CLOUDY    28  15  58 S8        30.45F
TOPEKA BILLARD CLOUDY    28  15  58 SE5       30.52R
TOPEKA FORBES  CLOUDY    28  16  60 SE3       30.51R
$$




USA.gov is the U.S. government's official web portal to all federal, state and local government web resources and services.